{"data":{"norad_id":48573,"intl_designator":"2021-041W","name":"STARLINK-2224","alt_names":[],"object_type":"PAYLOAD","status":"ACTIVE","operator":null,"country":"US","launch_date":"2021-05-15","launch_site_code":"AFETR","launch_vehicle":null,"mission":null,"orbit_class":"UNKNOWN","rcs_meters":null,"size_class":null,"mass_kg":null,"dimensions":null,"purposes":["comms"],"wikipedia_slug":null,"has_3d_model":false,"image_url":null,"decayed_at":null,"tle_current":{"epoch":"2026-05-25T06:00:02.000160Z","epoch_age_seconds":50114,"freshness":"FRESH","line1":"1 48573U 21041W   26145.25002315  .00006359  00000+0  21649-3 0  9998","line2":"2 48573  53.1590 131.2819 0001512  82.8173 178.6496 15.31704128  5755","mean_motion":15.31704128,"eccentricity":0.0001512,"inclination_deg":53.159,"raan_deg":131.2819,"arg_perigee_deg":82.8173,"mean_anomaly_deg":178.6496,"bstar":0.00021649,"rev_number":575,"period_min":94.012934592026,"perigee_km":469.69214155897,"apogee_km":471.7632382412,"semimajor_km":6848.8646899001,"source":"CELESTRAK","updated_at":"2026-05-25T13:38:16.727672Z"}}}